User: anonymous   Login
Location: Unspecified
(0.0000°N, 0.0000°E)
Time: 12:36:23
(UTC+00:00)
Language:

GEOS 3 - Orbit

View from above orbital plane
View from above orbital plane
View from above satellite
View from above satellite

Ground track
Ground track

The orbit data is extracted from the following two-line orbital elements,

1 07734U 75027A   18172.02439645 -.00000158  00000-0  83633-5 0  9997
2 07734 114.9875 196.1238 0027707 277.5883  82.2048 14.18622100235527
Epoch (UTC): 21 June 2018 00:35:07
Eccentricity: 0.0027707
inclination: 114.9875°
perigee height: 810 km
apogee height: 850 km
right ascension of ascending node: 196.1238°
argument of perigee: 277.5883°
revolutions per day: 14.18622100
mean anomaly at epoch: 82.2048°
orbit number at epoch: 23552

The dashed part of the orbit path shows where the satellite is in the earth's shadow,  

DLR